Theta_e
331 331 334 331 329 323 317 317 300 309 306 296 296 298 296 302 303 303 304 306 304 311 315 317 314 314 311 307 314 317 317 312 313 307 310 324 335 337 340 340 340 340 340 341 342 342 342 344 342 340 340 339 338 338 338 339 340 340 341 345 346 345 342 340 340 342 341 340 341 341 342 342 345 346 345 345 345 345 345 343 341 340 340 340 340 341 340 340 340 340 340 341 341 342 342 342 342
319 322 324 325 322 323 313 313 306 300 300 294 296 299 298 300 300 299 299 305 306 310 314 314 313 313 314 313 310 317 319 321 322 322 327 333 336 337 340 340 341 340 340 341 341 341 341 342 344 343 342 341 340 340 340 340 340 340 344 346 346 346 343 341 340 340 340 340 340 341 342 342 344 345 345 344 344 345 344 344 343 343 343 343 343 343 344 343 343 342 342 341 342 341 341 341 341
317 320 324 323 319 317 312 314 299 297 295 292 294 298 301 297 299 300 306 307 310 313 314 313 312 310 308 310 311 312 310 324 324 326 326 334 329 332 338 341 341 341 340 340 341 341 341 342 343 342 342 341 340 339 339 339 339 340 341 345 346 345 344 342 341 343 343 341 341 341 341 341 343 343 343 344 343 342 342 342 342 342 342 341 341 342 342 344 344 344 344 343 343 342 342 342 341
323 324 324 322 314 317 307 306 301 297 294 295 293 299 298 299 304 307 308 309 310 313 313 311 307 313 313 306 313 321 320 321 326 326 324 327 328 334 336 340 341 341 341 341 341 341 341 342 343 342 342 341 341 339 338 339 339 339 340 341 344 345 344 342 340 341 341 341 341 340 341 340 341 342 342 342 341 340 341 344 344 344 344 342 342 342 343 343 343 343 343 342 343 341 342 341 341
319 325 324 321 320 310 309 305 299 299 294 296 293 298 299 306 307 308 308 310 311 313 312 312 307 315 312 315 319 312 316 325 326 328 327 331 334 335 336 339 340 341 340 341 341 341 342 343 344 343 342 342 342 341 339 339 340 340 341 345 345 345 345 343 341 341 341 340 339 339 339 338 338 340 341 341 341 340 340 342 342 342 343 343 343 343 343 343 343 343 343 342 342 342 341 341 341
321 320 331 325 313 315 309 301 299 296 299 300 295 297 302 308 307 308 309 310 312 313 313 311 310 306 311 317 322 315 324 319 325 328 330 329 334 336 337 338 338 340 340 341 340 341 343 342 343 344 342 342 342 341 341 341 340 340 340 343 344 345 345 344 343 342 341 340 340 338 338 338 340 343 342 341 340 341 340 339 339 340 341 341 341 341 342 342 341 342 342 342 341 341 340 340 340
321 320 321 321 316 314 303 297 296 297 297 301 298 299 305 307 308 308 307 307 311 312 312 311 312 313 311 315 323 327 331 330 328 330 333 333 335 336 336 336 337 338 340 341 340 342 342 342 345 345 343 342 342 341 341 341 341 340 340 341 344 344 344 344 343 342 341 340 339 338 338 337 337 341 342 341 341 340 341 341 340 339 340 340 341 342 342 342 342 342 342 341 341 341 340 339 339
324 321 316 307 305 305 299 298 298 298 297 301 303 303 307 307 308 307 306 306 305 305 310 313 311 310 309 316 314 326 333 336 334 335 334 334 336 335 336 336 335 336 339 341 341 342 344 342 344 344 343 342 341 341 342 342 341 340 340 340 344 344 344 344 344 341 341 340 338 337 336 336 338 340 341 341 341 340 341 341 341 340 340 340 340 340 341 341 341 342 342 341 340 339 338 339 339
321 318 319 312 302 305 298 297 299 300 299 300 302 309 312 308 307 307 305 306 307 308 308 311 310 307 305 317 314 324 329 335 335 334 334 335 335 335 335 335 335 336 340 341 342 342 342 340 343 344 344 342 342 342 341 341 341 340 340 340 343 344 343 344 343 342 341 340 338 337 336 335 336 337 340 340 341 340 340 340 340 340 340 340 340 340 341 341 341 341 341 340 339 339 338 338 338
317 314 306 306 307 298 296 297 297 298 298 300 301 305 307 307 306 307 305 305 305 307 308 309 309 306 315 311 316 322 325 334 334 333 334 335 335 335 334 336 337 338 341 340 340 342 342 344 341 343 343 344 343 341 341 341 341 340 339 339 341 343 342 343 343 342 341 339 338 337 336 335 335 336 337 339 340 339 339 338 338 339 340 340 340 340 340 340 340 340 340 339 339 338 337 337 337
308 313 315 305 299 296 295 295 297 298 299 301 301 305 307 306 307 305 306 305 306 306 308 310 307 306 312 318 319 327 331 333 332 329 333 334 334 334 332 336 338 339 341 340 340 342 342 342 342 340 342 342 342 341 341 342 342 340 340 340 340 341 342 342 342 341 341 339 338 337 336 335 335 339 338 337 338 338 338 337 337 338 338 338 338 339 339 339 339 340 339 339 338 337 337 336 336
308 305 311 301 296 296 297 296 298 298 299 299 299 304 306 306 306 304 304 303 304 308 307 309 304 308 311 314 317 324 330 330 331 332 333 334 333 333 333 336 339 340 342 342 341 341 342 342 341 342 339 340 340 342 341 342 341 340 340 340 339 340 341 341 341 341 340 339 338 337 337 338 339 339 339 339 339 338 337 337 337 338 338 338 338 338 338 338 338 338 338 338 337 337 336 335 334
312 310 303 299 297 298 300 298 297 298 297 297 299 303 305 307 305 306 304 304 305 306 307 309 310 308 304 315 321 325 326 329 332 333 333 332 332 333 334 335 337 341 341 341 340 339 341 341 341 341 338 335 336 338 338 339 340 341 341 339 340 341 341 341 341 341 339 338 339 340 338 338 338 340 341 339 339 338 337 336 336 336 335 336 337 337 338 338 337 337 337 337 337 336 336 334 333
313 314 307 297 301 298 298 299 297 295 295 298 302 304 306 306 307 306 305 303 304 305 308 310 310 309 315 318 318 319 325 331 332 333 333 333 333 332 333 335 337 339 341 341 340 340 339 339 341 340 338 339 338 335 334 336 339 340 340 340 341 341 342 342 341 341 339 338 337 336 336 336 337 338 339 338 338 338 337 336 335 335 335 335 336 337 337 337 337 337 337 336 336 335 334 333 332
311 313 307 304 298 299 300 297 297 296 296 300 302 304 305 308 308 306 304 303 303 308 309 313 312 306 301 308 314 318 326 331 333 334 333 333 333 332 334 334 337 339 338 339 340 340 339 339 340 341 340 339 339 338 337 335 334 336 337 338 338 339 338 337 337 336 335 334 333 332 332 331 331 333 334 334 334 334 333 331 334 335 334 334 336 337 337 336 336 336 336 335 335 334 333 331 331
316 310 306 303 297 298 299 298 300 297 297 301 303 306 305 304 307 304 303 305 305 311 310 304 311 307 316 318 319 324 329 331 333 334 332 332 331 332 333 334 334 337 337 337 339 339 340 339 340 340 340 339 338 337 338 336 331 332 334 334 334 334 333 333 332 331 328 327 327 327 327 328 328 328 328 328 329 331 331 329 332 335 334 334 335 335 335 335 335 336 335 335 334 333 332 331 331
315 312 301 299 295 297 299 297 298 295 299 301 304 305 302 302 306 303 304 308 305 304 307 308 308 315 321 323 326 329 331 331 331 332 331 329 329 327 329 330 332 335 338 336 336 337 339 340 340 340 339 339 339 338 337 337 331 329 329 328 329 329 329 328 327 324 321 321 322 323 324 327 327 328 329 328 325 326 323 326 330 334 334 333 333 333 334 334 335 335 334 333 331 330 327 327 326
313 303 300 297 297 297 301 299 300 302 300 301 303 304 303 300 302 303 305 305 305 304 308 311 315 315 324 326 330 331 331 330 331 330 328 327 327 326 325 328 329 330 334 334 335 336 337 339 340 340 339 340 340 340 338 337 333 333 331 329 328 326 325 324 326 327 330 325 323 324 327 326 325 326 329 331 328 327 325 324 326 330 332 332 332 332 333 333 333 333 332 332 330 329 326 323 321
306 301 299 295 298 300 300 301 301 300 300 302 303 303 303 302 303 302 301 301 302 301 304 308 310 311 321 327 329 329 329 329 329 329 327 327 326 326 326 327 328 329 330 332 334 335 335 338 340 339 339 340 340 340 339 336 335 334 333 332 330 327 327 328 329 329 329 328 326 327 326 325 327 327 329 327 325 321 324 323 325 327 329 329 329 329 329 329 329 329 329 329 329 328 322 322 321
303 304 298 297 303 299 301 301 301 303 304 302 302 303 303 304 304 304 301 300 301 300 300 303 308 308 318 326 328 328 328 328 328 327 327 326 326 326 326 327 327 328 330 331 333 336 336 335 336 338 339 340 339 339 338 335 334 334 332 332 330 330 329 330 330 329 329 328 329 328 324 327 327 325 325 326 326 324 322 321 322 322 324 324 324 324 326 326 327 326 325 326 324 322 322 322 322
304 300 299 300 300 300 299 300 300 300 303 302 302 302 302 304 304 302 301 299 299 301 303 303 305 309 317 325 326 326 326 326 327 327 327 326 326 328 327 328 328 329 331 332 332 334 335 335 336 336 338 340 339 338 337 335 335 335 334 332 331 330 329 330 329 331 330 329 328 327 324 325 327 327 327 327 327 326 324 323 323 323 323 321 322 322 321 319 320 319 318 319 320 321 322 322 324
307 300 301 300 300 298 300 299 298 300 300 303 301 300 301 304 303 301 302 298 296 301 304 305 306 312 317 323 325 325 325 325 326 326 326 326 325 326 327 328 330 330 331 330 331 333 334 336 335 335 337 338 339 338 338 336 336 335 333 333 331 331 330 330 330 330 329 328 327 325 324 323 324 325 324 325 325 326 325 325 325 324 323 323 323 320 320 318 317 318 318 319 321 323 321 323 323
297 300 301 300 300 299 300 300 298 298 302 301 300 302 303 301 300 302 301 300 301 304 305 306 306 316 318 325 325 323 324 324 325 325 326 326 326 327 328 328 328 328 329 329 332 333 334 335 336 335 335 336 337 338 338 336 335 336 334 333 332 331 331 330 330 329 329 328 328 325 323 322 322 323 323 323 323 324 323 324 324 323 323 322 322 320 319 319 319 319 319 320 321 321 320 321 321
301 298 300 298 300 299 300 299 299 298 301 302 304 303 301 300 298 302 301 302 303 304 305 311 312 317 319 321 323 323 324 324 325 326 328 328 327 328 328 328 329 329 328 330 330 332 333 334 336 335 335 335 336 337 337 336 335 336 334 329 333 330 331 330 329 329 330 329 328 325 324 323 321 322 323 323 322 322 321 321 322 320 321 319 321 320 319 317 318 318 320 320 318 318 318 318 318
299 298 300 299 299 299 299 298 298 300 299 298 303 301 300 301 300 301 301 303 306 307 306 312 314 315 319 321 321 322 323 325 325 327 328 329 329 329 330 329 329 329 328 329 330 331 333 334 335 335 335 334 336 336 335 336 335 335 333 332 331 329 332 331 331 331 330 328 327 326 325 323 322 321 322 322 321 320 321 320 320 319 320 319 320 318 319 317 317 317 317 317 316 317 318 317 318
301 301 300 299 299 299 298 299 300 300 300 301 300 299 299 299 301 300 302 302 307 308 307 307 313 313 316 320 322 322 323 324 325 326 327 328 329 328 329 328 328 327 329 330 330 330 333 334 334 335 335 334 335 336 334 335 335 335 334 333 330 329 331 332 331 330 329 329 327 327 326 325 322 321 320 320 320 320 320 320 319 320 318 319 319 319 319 317 316 316 316 316 317 317 318 319 316
301 300 300 299 298 298 300 300 299 301 301 300 298 297 298 300 300 295 301 303 307 306 306 307 308 312 314 316 319 321 322 323 324 326 326 327 327 327 328 329 327 328 329 329 330 331 332 333 334 335 335 333 334 334 333 334 335 335 334 333 332 330 329 331 331 330 330 329 328 327 326 326 324 322 321 320 320 319 319 319 318 318 318 318 319 318 319 318 317 317 317 317 317 316 317 317 316
302 301 299 298 299 299 299 299 298 299 299 299 300 298 298 299 301 296 301 306 306 304 306 307 307 306 309 313 314 318 320 322 324 325 324 325 325 326 327 328 328 328 328 329 329 331 331 333 334 334 335 334 333 334 334 334 335 335 334 333 333 332 331 330 331 330 328 330 329 327 327 326 325 323 322 321 319 319 319 319 318 318 317 317 318 317 316 317 316 316 317 316 316 315 315 314 315
301 300 296 297 298 297 298 297 298 299 298 298 301 297 295 295 295 299 300 302 303 303 304 304 305 307 308 310 312 314 316 319 321 322 324 326 326 328 327 329 329 328 329 330 330 330 330 332 334 334 335 334 333 333 334 334 335 336 335 334 334 333 331 331 330 329 329 328 328 328 327 326 325 324 323 322 320 318 318 318 317 317 318 318 317 316 315 315 315 315 314 314 314 315 314 313 314
300 299 297 295 295 294 298 299 298 298 298 299 300 287 290 294 298 299 300 299 301 300 301 302 302 303 308 309 311 314 316 317 319 321 323 324 326 327 327 329 329 329 328 328 330 330 331 332 333 334 335 334 334 334 334 333 334 335 335 335 333 333 332 331 330 329 328 328 329 328 328 327 325 324 323 322 320 318 318 318 317 317 317 317 317 316 315 315 313 312 312 312 312 312 311 311 310
294 297 298 292 290 290 297 298 297 296 298 299 300 290 291 296 298 299 299 300 300 298 299 302 303 303 305 308 312 314 317 318 320 322 323 325 326 327 328 329 329 329 328 328 329 330 330 331 331 332 331 334 333 334 333 334 334 334 335 335 334 333 333 331 330 329 328 329 329 328 328 327 326 325 324 323 321 319 318 317 317 316 318 316 315 315 315 314 313 313 311 311 310 310 311 310 311
295 292 288 293 290 293 296 299 297 295 296 298 297 291 292 295 296 299 300 300 300 299 299 301 302 302 304 308 311 312 314 318 320 323 324 325 326 325 326 326 329 329 328 328 329 330 330 330 330 330 330 330 333 333 332 332 333 333 333 331 334 334 332 332 331 330 329 329 328 328 329 328 326 325 324 324 321 321 318 317 317 317 316 316 315 314 315 314 314 313 313 313 311 309 311 310 311
293 291 291 289 292 292 294 296 297 300 296 297 295 291 294 295 297 297 299 299 298 298 299 299 302 303 303 307 309 310 311 314 317 320 322 323 324 324 325 325 326 328 328 327 328 329 329 330 329 330 330 330 332 332 331 331 332 332 332 331 334 334 332 332 330 330 330 329 330 330 330 328 326 326 325 324 323 322 319 318 317 317 316 315 314 313 313 313 314 313 311 312 312 310 311 309 309
288 292 289 293 290 291 290 296 297 299 296 292 294 291 291 295 296 296 298 298 297 296 297 298 300 300 302 303 306 308 309 312 314 316 319 322 322 324 325 323 324 327 327 327 328 329 329 330 329 329 331 332 330 331 330 329 330 331 331 331 332 333 332 330 331 329 329 328 329 329 329 328 327 326 326 325 323 322 320 318 317 317 316 314 313 312 312 313 313 313 311 310 311 312 311 310 308
287 288 288 290 293 294 292 290 294 297 296 292 292 290 293 294 295 296 297 298 297 296 297 297 298 299 301 302 304 305 306 308 313 315 317 320 322 323 324 325 325 326 327 327 328 328 328 329 329 328 328 329 328 330 330 329 329 329 329 329 332 332 331 331 331 330 329 331 331 331 329 328 326 327 327 326 324 322 320 319 319 317 316 313 312 311 312 312 310 311 311 308 308 306 308 309 307
293 292 291 291 290 291 291 294 296 297 293 292 292 290 292 295 295 295 296 297 297 297 296 296 297 298 299 301 302 303 304 305 309 315 317 319 321 322 323 324 324 325 327 327 327 328 328 327 328 328 328 329 327 327 328 327 325 325 325 325 326 330 332 329 330 330 330 331 331 329 327 326 325 326 327 327 325 322 319 318 315 314 313 313 311 309 309 308 308 309 310 309 307 303 305 305 304
293 294 293 291 293 293 292 294 295 294 295 292 293 293 293 294 295 296 296 296 296 296 296 297 297 297 298 298 300 301 302 303 306 312 316 318 319 321 321 322 322 323 325 326 327 327 327 327 327 326 328 328 328 327 327 326 325 324 324 325 324 324 328 330 330 330 329 328 326 327 326 326 326 325 326 327 325 321 321 318 314 312 311 310 309 309 308 307 308 309 309 309 306 303 301 301 302
292 293 291 290 292 290 293 293 294 296 293 292 294 293 294 295 295 296 296 295 295 296 296 296 298 298 298 299 299 300 301 305 307 306 313 316 318 319 320 320 319 320 321 324 325 326 326 326 326 327 327 327 327 328 328 328 328 327 326 325 322 323 325 327 330 331 331 330 329 327 326 327 328 327 326 327 325 322 320 317 314 311 309 309 309 309 307 306 307 306 307 306 305 304 303 302 301
294 292 291 290 289 292 293 293 295 295 293 289 293 292 293 295 296 297 296 296 296 297 298 298 298 298 299 299 299 300 301 302 305 305 309 314 316 318 319 319 320 321 321 322 323 324 325 325 326 326 326 326 326 327 327 328 328 328 328 325 326 322 324 327 329 328 329 330 330 330 330 330 330 329 327 325 325 323 321 318 315 312 310 309 309 308 306 306 307 306 306 305 302 304 305 303 302
292 290 289 288 294 289 288 292 294 293 291 292 290 290 292 295 295 296 297 297 298 299 299 299 299 298 299 299 300 301 301 302 305 305 306 309 313 316 316 317 318 320 319 320 321 322 325 324 324 325 325 325 326 325 323 326 327 326 327 326 326 326 324 322 326 328 328 327 328 330 329 329 329 328 327 325 325 324 322 320 317 313 310 309 310 309 308 308 308 306 306 306 306 301 302 301 301
294 294 292 291 293 292 291 290 293 292 294 293 289 288 289 291 292 294 297 299 298 299 299 299 300 300 300 301 301 302 302 303 305 305 305 305 307 311 314 315 317 317 318 319 320 321 323 323 324 324 324 325 325 323 323 323 323 321 321 322 323 324 321 321 320 320 325 326 327 327 328 328 327 327 327 326 324 324 323 322 319 315 313 312 311 311 310 309 309 308 306 305 305 306 304 302 300
290 294 295 294 294 291 291 292 289 288 288 292 290 281 281 287 291 293 296 296 297 298 297 298 299 299 299 300 301 303 303 303 305 306 305 305 306 305 307 309 312 315 316 318 320 321 321 322 323 323 323 323 323 323 323 323 322 321 320 319 318 318 319 320 322 322 322 323 324 326 327 327 327 327 327 326 325 324 323 322 321 318 315 313 312 312 311 310 309 308 307 307 306 307 307 304 300
288 289 296 295 295 293 292 291 291 283 281 291 295 282 279 288 289 292 294 294 295 297 297 297 298 299 300 301 301 303 305 304 304 305 305 305 304 305 305 306 308 310 312 315 318 319 320 320 322 323 322 322 322 322 323 321 321 321 321 320 319 319 319 320 319 320 323 321 323 323 325 326 327 327 326 326 326 324 323 323 321 320 318 315 311 311 311 310 309 308 308 307 307 307 306 305 305
287 294 299 296 295 294 293 293 290 287 292 293 292 291 281 282 288 293 294 294 294 294 296 297 298 298 299 301 301 300 302 302 303 304 305 305 305 306 305 306 306 306 307 310 314 317 318 319 320 322 322 320 321 321 322 321 321 320 319 319 318 318 318 317 318 319 321 322 323 324 324 324 325 325 324 324 325 324 322 323 322 321 319 317 312 311 311 311 310 309 308 308 308 308 307 306 306
292 295 299 296 295 296 295 293 289 290 286 282 286 291 281 279 287 294 294 292 292 292 294 296 297 298 299 300 301 300 301 302 303 303 303 303 305 304 304 305 305 305 306 308 311 314 316 318 318 320 321 320 320 320 320 320 319 319 318 317 316 317 317 316 315 317 317 318 319 321 322 322 323 323 323 323 323 323 320 321 321 320 319 317 312 312 311 311 310 310 309 308 307 307 307 306 306
294 298 299 298 298 298 296 289 288 287 282 280 285 289 280 281 289 290 292 290 291 292 294 296 297 298 298 298 299 301 301 300 302 304 303 302 302 303 303 303 304 304 306 307 307 309 312 315 317 319 319 319 320 319 319 318 317 317 317 316 316 315 315 315 315 316 315 315 316 318 321 321 321 322 323 323 322 322 321 320 320 319 318 317 311 312 311 310 310 310 310 309 307 306 306 305 305
299 298 295 294 293 291 289 289 287 285 279 281 287 290 286 279 286 288 289 292 293 294 294 295 298 297 298 297 298 299 300 301 300 300 301 302 302 302 300 301 301 303 304 305 306 308 310 313 315 317 318 318 318 318 318 317 317 317 317 316 316 315 315 315 315 315 317 316 317 318 320 322 321 321 322 321 322 322 321 320 320 319 318 316 313 312 311 310 310 309 309 308 307 306 305 305 304
298 294 290 291 287 287 285 284 285 279 276 284 282 288 289 279 282 291 293 293 293 294 293 294 295 298 299 299 299 300 299 301 303 302 301 302 302 302 301 300 300 302 303 304 305 307 308 310 312 314 315 316 317 317 316 316 317 316 316 316 316 316 317 317 316 315 316 317 317 317 317 318 320 320 320 319 318 320 320 319 319 319 317 316 314 313 311 310 309 309 308 308 307 307 306 305 304
295 292 290 284 282 281 278 281 276 276 276 281 283 286 284 284 287 291 293 294 294 294 295 295 296 297 299 299 299 299 299 300 301 301 301 302 301 301 301 300 300 302 303 303 306 306 307 308 310 312 313 313 315 315 315 315 315 315 315 315 315 316 317 317 316 315 315 316 317 316 316 316 316 317 318 317 316 317 317 317 317 317 316 315 314 312 311 310 309 308 308 307 307 307 306 305 304
291 288 284 282 278 277 273 276 279 279 281 281 281 285 280 285 287 294 295 296 296 294 295 297 297 298 299 299 298 299 299 299 299 301 301 302 303 302 302 302 302 302 303 304 306 307 307 309 310 311 312 313 313 313 314 313 314 314 315 315 316 316 316 317 317 317 316 316 316 315 315 316 316 316 316 316 315 317 316 316 316 315 314 313 311 310 309 309 309 308 307 307 307 307 306 304 303
290 293 291 284 283 280 274 277 274 274 279 282 282 280 278 279 284 293 294 296 295 294 295 297 297 298 298 298 298 300 300 299 300 300 302 304 304 304 303 303 303 303 303 305 307 307 308 308 309 310 310 312 312 312 312 312 313 313 314 315 315 316 317 317 317 317 317 316 315 316 315 316 316 316 315 314 313 314 314 314 313 312 311 311 310 310 309 308 307 306 307 306 306 305 305 304 304
290 292 293 287 284 288 281 283 282 280 279 278 278 278 283 285 291 293 293 293 293 294 294 294 294 296 297 296 296 296 297 298 300 301 302 303 304 304 305 304 304 304 304 306 307 308 308 309 309 310 310 311 311 311 311 312 312 314 314 314 315 315 315 316 316 316 316 316 315 315 315 314 314 313 312 311 311 311 310 310 309 310 309 308 308 309 308 307 306 305 304 304 305 305 303 302 303
287 290 283 288 292 287 282 281 282 280 279 276 281 281 285 289 291 294 293 292 293 293 292 292 292 293 295 296 297 298 299 298 301 302 301 303 302 303 304 304 305 305 306 307 308 309 309 309 309 310 310 311 310 310 311 311 312 313 313 314 314 313 314 315 315 314 314 315 314 314 313 313 313 312 311 310 310 309 311 311 310 309 309 308 308 307 306 306 305 304 303 301 302 303 302 302 302
289 282 288 293 295 292 286 280 281 278 275 277 280 279 279 283 280 291 291 290 292 291 291 292 293 293 294 295 297 300 299 300 302 303 303 303 303 303 303 305 305 306 306 306 307 307 309 309 309 310 310 310 309 309 309 310 311 312 312 313 313 313 313 312 312 312 311 311 309 309 309 311 309 310 310 309 309 309 308 306 308 307 308 308 308 306 305 303 302 300 300 298 299 301 302 302 302
291 289 296 289 282 281 284 283 277 276 274 276 279 279 280 281 284 287 288 289 291 292 291 292 293 294 294 295 296 299 300 301 301 302 302 302 302 303 303 304 304 305 306 306 307 308 308 307 309 310 310 310 309 309 308 309 310 312 312 312 312 313 312 310 308 308 308 308 307 307 306 307 306 306 308 306 306 305 305 303 303 302 302 304 303 304 302 302 301 300 299 300 300 301 302 301 301
294 293 287 291 286 285 282 282 283 282 276 276 275 279 276 287 286 289 290 289 290 291 291 291 292 294 295 294 296 299 300 300 299 300 301 302 302 303 303 303 303 304 305 306 307 307 307 307 308 308 309 309 308 308 308 309 309 310 311 311 311 310 309 309 308 309 309 307 307 307 306 306 307 306 305 304 302 301 300 299 300 302 300 300 301 301 301 300 300 300 300 298 299 301 301 300 299
285 285 283 286 286 288 286 285 283 280 278 276 276 274 280 286 291 291 292 292 293 293 293 296 297 297 297 297 298 299 299 299 300 300 301 302 302 302 302 301 301 301 301 303 305 306 306 306 307 307 308 308 308 308 308 308 309 309 308 309 309 309 308 307 306 307 308 307 306 307 306 306 303 303 302 301 300 300 299 301 300 301 301 300 299 299 300 299 299 299 298 299 299 300 300 299 298
289 288 285 287 284 282 279 279 287 283 281 276 277 275 281 291 291 293 292 292 293 294 293 295 296 295 296 297 299 301 299 298 300 300 300 300 300 300 300 300 299 300 301 302 303 304 304 305 306 306 307 308 308 308 308 308 309 309 308 308 307 306 307 305 305 305 305 305 304 303 302 301 301 299 299 299 300 298 298 298 298 298 298 299 298 301 299 299 299 298 297 299 299 299 299 299 297
Wind_Speed
8 7 5 5 5 4 4 2 2 1 2 6 4 2 2 6 5 6 5 4 5 3 3 7 6 6 5 3 12 11 9 7 1 1 1 3 5 5 13 12 12 11 10 9 8 7 7 9 12 12 12 12 11 11 11 11 9 8 9 13 13 11 13 12 13 17 15 15 15 16 15 15 17 17 18 18 18 18 17 17 18 17 18 18 18 18 18 18 18 18 18 19 19 19 20 19 20
6 7 4 3 4 2 2 3 1 3 3 5 1 6 4 4 4 6 6 4 5 3 3 5 7 4 2 2 4 9 13 10 9 9 9 6 5 8 12 12 12 12 10 9 8 7 7 7 11 12 11 11 11 10 9 9 8 8 13 15 13 10 11 13 14 14 15 15 15 15 14 14 16 16 17 18 17 17 16 17 18 17 16 17 18 18 18 18 18 19 19 19 19 19 19 19 19
6 6 6 4 3 2 4 0 2 4 4 3 3 6 4 4 6 6 7 10 9 4 5 5 3 2 2 0 9 7 4 10 11 10 8 7 8 8 10 11 11 11 11 8 8 8 6 7 10 12 12 11 11 10 10 10 10 12 12 14 13 11 9 12 13 16 15 15 14 13 14 15 16 17 16 17 18 18 18 17 16 16 16 16 17 17 17 18 18 18 18 18 19 19 19 19 18
5 4 3 3 2 3 2 1 3 3 7 2 5 3 5 4 8 11 10 8 7 4 4 3 2 0 4 8 7 12 8 7 8 8 8 7 5 9 9 12 11 9 8 8 8 7 6 8 11 12 12 12 11 10 10 10 11 11 10 12 13 11 9 10 12 14 14 14 14 14 13 14 16 15 16 17 17 16 17 18 17 15 16 17 17 17 17 17 17 17 18 18 18 18 18 19 18
4 3 4 3 1 2 1 2 4 2 3 2 4 4 5 10 11 10 7 5 4 4 4 3 3 1 1 5 3 2 5 8 7 5 6 6 9 8 7 11 9 9 8 9 9 8 7 11 11 11 12 12 11 11 10 10 11 10 11 14 12 12 10 10 11 13 15 14 14 13 12 13 14 14 14 16 15 15 15 15 15 16 16 17 17 16 16 17 17 17 18 18 18 18 17 17 16
5 4 3 0 1 1 1 3 3 5 1 1 7 4 7 11 12 11 8 5 4 3 2 4 2 4 3 5 3 4 2 4 8 4 7 8 10 9 8 7 10 9 9 10 10 7 7 11 11 11 12 12 12 10 10 10 10 11 9 13 13 12 11 10 10 13 13 13 14 14 13 13 15 15 15 15 15 15 14 14 15 15 15 15 15 15 16 16 16 17 17 17 17 17 17 15 15
2 2 1 1 3 1 2 4 5 4 3 4 4 4 11 10 10 12 8 5 2 2 4 2 2 8 5 2 6 5 7 8 7 8 6 8 10 8 7 8 8 10 11 10 9 8 9 11 11 12 11 11 12 11 10 10 10 9 11 12 13 12 12 11 10 13 13 14 14 13 13 12 12 14 14 14 13 14 14 14 14 15 15 15 15 15 15 16 16 16 17 16 16 16 15 14 15
3 1 1 2 2 1 3 5 5 2 2 3 3 6 11 11 9 9 8 5 3 2 2 4 2 2 3 6 5 0 7 8 13 13 11 9 9 9 5 8 8 8 11 11 9 7 10 11 11 11 11 11 11 11 10 10 9 10 10 11 13 12 11 11 11 11 14 13 14 13 12 12 12 13 13 13 14 14 14 14 14 14 14 14 14 14 15 15 15 16 16 16 16 15 13 13 13
2 1 1 0 3 1 3 6 3 2 3 3 3 8 13 8 8 9 7 3 7 3 5 2 2 1 3 9 7 4 4 11 13 13 11 10 10 7 5 8 8 8 11 10 9 7 7 10 11 11 10 11 11 11 10 10 9 9 9 10 13 12 11 11 11 12 13 13 12 12 11 11 12 13 13 13 14 13 14 14 14 14 13 13 13 14 14 14 14 15 15 15 15 14 13 12 12
2 2 1 2 2 4 4 4 6 2 4 4 4 7 8 6 7 8 6 8 5 6 5 3 2 2 10 9 7 4 2 11 12 10 9 10 9 5 5 8 8 9 12 10 9 7 6 11 11 10 9 9 10 11 11 9 9 10 9 9 12 13 12 11 11 12 13 12 12 11 11 10 11 11 13 13 13 13 13 13 13 12 13 13 13 13 13 13 13 14 14 15 15 14 12 11 11
2 2 2 1 3 3 5 6 3 3 5 2 4 3 6 5 7 6 5 6 5 4 5 5 3 3 6 5 3 2 6 10 12 11 10 10 7 5 6 8 7 8 12 10 9 8 7 7 11 10 9 9 9 10 10 9 9 9 9 9 10 11 11 11 11 11 12 12 11 11 10 10 11 12 10 12 12 12 12 12 12 12 12 12 12 12 12 12 13 13 14 14 13 13 11 11 11
2 3 2 3 4 4 4 6 5 5 5 4 2 2 1 4 4 6 6 8 5 7 4 5 3 3 7 5 2 5 8 8 10 10 9 9 7 6 6 7 7 7 9 9 10 8 8 7 6 10 10 9 9 9 8 9 9 8 9 9 9 10 11 11 11 11 11 11 11 10 10 11 11 11 9 10 10 11 12 12 12 12 12 12 12 12 12 12 12 13 13 12 12 12 11 10 11
2 3 2 2 4 5 1 3 4 5 4 4 6 2 1 3 4 6 5 6 6 7 3 6 3 2 2 3 4 6 9 8 10 10 8 7 6 4 5 7 6 7 7 9 10 9 8 7 7 6 7 11 10 9 8 9 8 7 8 9 9 8 10 11 11 11 11 11 11 11 11 11 11 10 11 13 12 12 12 11 11 11 11 11 11 12 12 12 12 12 12 12 12 12 10 10 10
1 2 2 3 4 5 3 1 3 4 3 4 5 5 4 3 3 4 5 6 5 4 2 5 1 1 7 7 5 6 8 10 12 10 7 5 4 4 5 7 5 7 5 6 9 9 8 7 7 7 8 7 6 8 9 9 8 8 7 8 9 9 8 9 9 9 10 10 10 9 9 9 10 10 11 12 11 10 10 10 11 11 11 11 11 11 11 11 11 11 12 12 12 11 10 10 9
1 3 1 2 3 4 3 0 5 5 1 8 5 8 5 3 2 2 2 6 3 2 1 5 2 2 1 4 5 8 11 12 13 11 7 6 4 5 5 7 5 5 5 6 8 9 9 8 8 7 6 6 7 5 5 7 9 9 9 9 9 8 8 10 10 10 9 10 9 9 9 10 10 11 10 10 11 11 11 10 10 9 9 11 12 11 11 11 10 11 12 13 12 11 10 9 8
1 3 1 1 4 2 1 3 1 3 2 4 7 7 7 4 2 3 2 1 2 1 1 1 3 2 2 4 9 12 14 14 13 11 9 7 5 4 6 7 5 5 4 4 7 7 8 8 8 7 6 7 6 6 5 5 8 10 9 10 10 9 9 9 9 9 9 9 9 9 9 7 7 8 11 8 10 10 10 8 9 9 9 10 11 10 10 10 10 11 13 13 12 11 9 8 6
1 0 2 2 5 4 2 4 4 2 5 4 6 8 6 4 0 3 1 4 7 2 2 5 3 2 5 4 14 15 14 12 12 11 9 6 5 4 5 5 5 4 3 4 5 5 7 8 8 8 7 8 7 8 6 6 7 10 8 9 10 10 9 9 9 9 8 7 7 7 6 4 5 5 6 5 8 7 10 11 10 10 10 9 9 10 9 9 11 12 11 10 10 10 8 7 7
0 2 2 3 5 4 3 6 4 4 6 6 8 8 7 7 3 2 2 1 3 4 6 5 10 7 3 3 11 14 13 13 12 12 9 7 6 5 4 5 6 6 5 4 4 5 6 8 8 8 6 9 6 6 6 6 6 7 7 6 5 6 7 8 7 5 5 3 5 5 4 5 5 3 6 7 6 7 8 12 11 11 12 12 12 12 10 11 11 11 9 8 8 8 5 3 3
2 2 3 4 5 1 3 5 7 3 5 9 6 6 6 6 8 3 4 4 5 4 5 6 8 4 3 6 13 13 12 11 13 11 11 11 9 9 7 6 7 6 6 6 5 5 5 7 8 8 7 8 7 6 6 6 6 5 6 6 5 6 6 6 5 5 4 4 3 4 4 4 4 4 5 7 7 9 9 11 12 11 11 11 11 12 11 11 11 10 8 5 3 3 0 2 1
3 1 2 6 1 3 5 4 4 6 10 8 6 6 4 9 5 4 3 6 5 6 6 7 8 8 6 9 12 12 11 10 11 12 12 12 10 11 9 8 7 6 7 5 6 5 6 5 6 7 9 9 7 6 7 7 6 6 6 5 5 5 5 5 5 5 5 5 5 5 3 7 6 5 10 13 10 6 7 10 12 12 11 11 11 7 7 7 8 7 4 4 2 2 2 2 3
2 3 2 2 3 0 4 5 4 4 3 7 6 5 3 11 5 6 4 7 6 5 7 8 9 12 11 10 13 11 12 11 11 11 12 11 10 9 9 9 8 6 6 6 5 6 6 5 5 5 8 8 8 7 7 7 6 7 6 7 6 6 5 5 6 4 5 5 4 1 5 5 6 6 6 6 6 6 5 5 5 5 5 4 7 4 4 2 2 2 1 2 3 3 3 2 4
1 4 1 3 4 4 4 4 5 3 4 5 5 7 3 6 7 5 6 5 6 6 6 9 8 15 14 12 12 10 11 13 13 12 12 12 11 10 8 7 7 6 6 6 6 6 6 6 6 4 7 7 8 8 7 7 7 6 6 6 7 7 6 5 6 4 4 3 2 3 5 4 6 5 4 4 6 6 6 5 5 5 5 4 4 3 5 3 2 3 2 3 4 4 3 3 3
3 4 2 3 1 2 2 2 4 4 1 4 5 4 4 4 3 4 5 5 1 1 4 4 9 17 16 14 12 11 12 13 14 14 13 13 12 10 10 9 9 9 7 7 7 6 7 6 6 5 5 6 7 8 7 7 5 5 6 6 6 6 6 4 5 5 5 4 3 4 5 3 6 6 5 5 4 7 7 6 6 6 5 5 4 4 5 4 5 4 3 3 4 5 2 1 0
3 2 2 2 4 4 3 2 3 4 3 3 2 5 4 4 3 4 4 4 5 4 3 4 9 16 15 14 14 15 14 14 14 12 12 11 11 10 9 9 8 7 7 8 7 7 8 8 7 6 5 5 5 6 6 7 5 6 5 6 5 5 5 4 4 5 6 6 3 4 4 5 4 6 5 4 3 5 5 5 6 6 6 5 6 4 5 4 1 5 4 5 2 1 1 1 1
6 5 2 1 3 2 2 1 1 1 3 4 2 4 4 5 1 4 6 6 5 4 5 7 13 13 13 13 13 12 11 11 11 11 9 8 9 8 7 7 7 7 8 8 7 7 8 7 8 8 6 6 6 5 5 6 5 6 6 6 4 6 5 5 4 3 6 6 3 5 4 6 4 5 4 4 3 3 4 3 3 4 4 3 4 4 5 4 2 2 2 1 2 0 0 1 1
6 4 3 3 2 3 2 3 1 0 2 1 3 3 4 3 2 2 6 4 6 7 7 4 8 10 10 10 12 12 11 12 11 11 11 8 8 10 8 7 7 8 7 8 7 5 7 7 9 9 8 7 7 6 5 6 6 6 6 6 4 6 4 4 3 3 4 5 6 3 5 4 5 5 5 4 4 3 3 4 3 4 3 3 4 4 5 5 4 3 3 1 2 3 3 4 3
3 3 3 3 3 3 1 2 3 0 1 1 2 4 2 2 2 4 7 5 8 7 6 4 6 7 9 8 9 10 12 12 12 10 8 7 8 10 8 7 7 7 8 8 8 6 6 9 7 9 8 6 6 6 5 6 6 6 6 6 5 5 5 5 4 5 4 4 5 4 3 3 3 5 6 4 4 3 3 3 2 3 4 3 5 4 6 5 5 5 4 5 5 4 4 4 3
4 6 6 4 2 2 1 2 3 2 1 2 3 1 3 2 0 4 2 9 10 9 7 6 5 5 6 9 9 8 9 10 9 10 13 12 10 9 9 8 7 6 9 9 8 7 6 9 9 7 8 6 5 6 6 6 7 7 6 5 5 6 4 4 5 5 6 5 5 7 5 6 4 5 7 5 4 4 4 4 4 3 4 3 4 4 4 4 4 4 4 3 2 2 1 3 3
1 4 2 3 3 2 3 3 3 3 1 4 1 1 1 3 5 7 4 3 6 8 8 7 6 6 5 6 7 6 7 8 8 9 10 9 8 8 10 9 8 6 5 8 9 9 8 9 9 9 8 7 6 5 6 5 6 7 8 7 6 7 6 5 6 6 6 4 4 7 6 5 5 4 6 7 5 4 5 5 5 4 4 4 4 4 4 4 2 2 3 1 0 1 2 3 1
3 3 2 3 3 2 6 3 4 2 1 4 0 1 6 9 13 7 8 6 3 5 6 7 6 6 6 5 6 6 6 7 9 9 8 8 8 9 9 10 10 8 6 6 8 10 8 6 7 7 9 9 10 6 5 5 5 6 8 7 6 7 7 6 6 6 6 6 5 5 6 5 5 5 4 5 6 5 5 5 5 5 5 4 4 4 4 4 3 3 3 2 1 1 2 3 3
2 2 2 3 5 3 8 4 6 3 1 1 0 2 4 6 10 7 7 9 9 6 6 7 7 6 6 6 6 6 6 6 9 9 8 9 8 7 8 7 10 9 6 6 8 9 9 8 7 6 9 9 10 9 7 7 5 6 7 7 7 7 7 6 6 6 7 7 6 6 6 5 5 5 4 6 5 5 5 5 5 5 5 4 5 4 5 3 3 4 4 4 2 2 2 3 4
3 3 4 3 5 1 4 4 9 5 1 4 2 3 7 3 5 7 5 6 8 7 6 7 7 7 6 6 7 7 7 6 6 7 8 9 8 7 8 8 9 9 8 7 7 8 9 8 8 6 6 7 10 10 7 6 6 6 6 7 7 8 7 7 6 6 7 7 6 6 7 6 6 5 4 5 6 6 6 6 6 5 5 5 5 5 5 5 5 4 4 5 4 4 4 3 4
3 5 2 4 4 2 2 2 5 2 6 2 6 3 1 1 2 4 2 5 5 5 7 7 8 8 7 7 6 6 6 7 6 7 8 7 7 6 7 8 8 9 8 7 7 7 9 9 10 9 9 8 9 10 8 6 6 6 6 6 8 8 7 6 4 4 6 6 6 6 7 7 5 6 5 5 6 6 6 6 6 5 4 5 5 5 5 4 5 4 4 5 4 5 5 4 4
4 4 3 4 6 4 2 1 3 2 6 4 5 3 4 1 6 4 4 3 4 5 5 7 8 7 7 7 7 7 7 8 10 9 9 9 7 7 7 8 8 8 8 8 7 8 9 9 9 9 9 11 8 10 9 7 6 6 6 6 7 8 7 6 5 4 5 5 5 5 6 7 6 6 6 6 6 6 6 5 5 6 6 6 5 4 6 4 4 5 4 3 3 2 5 5 4
3 4 4 3 7 8 5 6 5 4 5 4 5 4 9 3 4 5 6 6 6 6 6 5 6 7 7 7 8 8 8 8 9 9 9 10 9 8 7 7 7 8 8 9 8 8 7 7 8 9 7 9 8 9 9 8 6 5 5 5 7 7 7 6 6 6 6 5 5 5 6 7 7 6 6 6 6 6 6 6 6 6 6 6 6 5 5 4 3 3 5 3 2 2 1 1 3
8 6 6 5 4 6 5 1 0 7 6 4 7 8 10 11 5 4 5 6 8 8 6 5 5 6 7 7 7 7 7 9 7 9 10 10 9 9 7 7 7 7 8 9 8 9 9 7 8 8 7 7 5 5 7 8 7 7 6 5 5 7 8 7 6 7 7 7 6 6 6 7 7 6 6 5 6 6 5 5 4 5 6 6 6 6 5 5 6 4 4 4 4 2 2 3 4
4 7 7 9 3 2 4 2 1 2 1 6 5 6 7 7 6 7 9 6 6 6 7 7 6 6 6 6 8 8 8 7 7 9 11 11 11 10 9 8 8 7 7 8 9 9 10 9 10 11 10 8 8 7 6 7 8 7 5 7 7 6 7 8 7 6 6 6 5 5 5 5 5 6 6 5 6 6 5 5 6 5 6 6 7 8 6 5 5 5 4 3 5 4 3 2 2
4 2 6 5 5 1 2 2 1 0 1 3 7 6 8 7 5 5 7 7 9 10 8 8 7 7 6 6 6 8 7 4 6 6 9 10 10 10 9 8 8 10 8 8 10 10 10 9 10 10 10 10 10 10 9 8 8 9 9 8 5 5 6 7 7 7 7 6 6 5 5 5 5 6 6 5 5 6 5 5 6 7 6 6 5 4 4 4 4 4 4 3 3 6 5 5 4
2 1 2 4 4 3 1 4 1 0 1 5 1 7 9 9 8 6 8 11 8 10 10 11 10 9 8 8 8 7 6 7 7 8 8 10 11 11 10 9 10 12 12 12 11 10 10 11 10 9 10 11 10 10 9 10 8 7 8 6 7 4 3 5 7 7 8 8 8 7 6 6 7 7 7 7 7 6 7 6 7 6 6 6 5 5 5 5 5 6 6 6 4 3 3 4 7
1 3 1 2 1 3 1 1 1 0 1 1 3 4 7 6 5 6 5 10 6 9 11 9 9 11 11 10 9 9 9 8 10 10 10 9 10 11 10 10 10 9 10 9 10 12 11 10 10 10 10 10 10 10 10 9 9 7 7 7 6 6 6 3 5 8 8 9 9 9 7 7 7 7 7 8 7 7 7 7 6 6 7 7 7 7 6 7 6 6 7 7 5 3 4 5 5
3 4 2 2 1 0 2 2 1 1 1 2 4 6 7 6 6 6 8 11 8 8 10 10 9 10 9 7 8 11 12 11 11 9 9 9 10 11 12 10 9 12 11 12 12 12 10 13 12 12 10 11 10 10 9 7 8 6 6 5 6 6 2 4 3 4 8 8 7 8 8 7 7 7 6 7 8 8 7 7 7 7 7 7 7 7 7 8 8 7 7 7 8 8 6 5 4
3 4 4 2 3 5 4 4 3 1 2 3 3 2 6 4 10 13 10 9 11 9 9 10 11 10 7 8 9 8 8 10 12 13 13 13 13 10 9 10 11 10 11 11 12 12 11 11 11 10 9 9 10 10 10 7 8 8 8 8 8 8 8 8 11 11 8 9 9 6 7 8 7 6 6 7 7 7 7 7 7 7 7 7 7 7 7 6 6 7 8 8 8 8 7 6 5
3 2 7 7 2 6 5 4 1 1 2 1 1 7 5 1 4 7 10 8 13 8 11 11 10 9 8 10 9 7 8 6 7 7 9 11 11 10 10 11 11 11 10 8 9 10 10 9 10 11 10 9 9 8 10 8 8 8 9 9 8 9 10 8 6 5 7 6 6 7 7 7 8 8 7 8 8 8 8 8 8 8 7 7 7 7 7 7 7 7 7 8 8 8 7 8 8
3 1 3 4 5 6 5 5 4 1 1 1 0 1 2 6 8 4 1 8 6 5 6 7 7 7 9 10 9 8 9 8 8 8 9 11 11 13 14 13 11 12 8 8 7 8 11 10 10 10 9 8 8 8 10 10 9 9 9 8 8 8 8 7 7 6 5 6 7 7 7 7 8 8 7 7 7 7 8 8 8 8 7 7 8 8 8 7 6 6 7 8 8 8 8 9 8
2 0 4 1 2 3 5 4 3 1 3 4 1 1 1 5 4 1 0 0 2 5 7 9 10 9 10 11 11 11 11 11 11 10 8 8 10 10 9 10 9 7 8 9 9 8 8 8 8 8 9 8 8 9 10 9 9 8 9 8 8 7 6 5 4 5 6 5 6 7 7 7 8 9 9 8 6 6 7 7 7 7 8 8 7 7 6 6 8 8 8 8 9 8 8 8 7
1 1 4 4 4 2 2 2 1 0 1 5 4 4 3 7 3 4 2 4 5 6 9 10 12 12 11 9 9 11 9 7 8 9 9 7 6 6 6 6 7 8 7 7 6 6 6 6 8 9 9 8 8 9 10 10 9 8 8 8 9 7 5 5 4 5 5 5 6 5 6 6 6 8 8 9 8 8 7 6 6 7 7 7 7 7 7 7 7 7 8 8 8 9 6 7 9
3 2 5 3 2 2 2 1 1 0 4 6 5 7 5 5 4 7 5 5 7 7 5 3 2 8 9 7 7 7 6 6 5 4 4 4 3 5 5 7 6 5 5 6 7 7 6 7 7 9 8 7 8 10 10 11 10 9 9 9 10 9 8 6 6 7 7 7 8 7 7 7 6 6 7 8 8 8 8 7 7 6 6 6 7 7 7 7 7 6 6 6 7 8 7 7 8
2 2 2 3 3 2 1 0 1 2 4 0 3 1 5 7 2 3 2 1 2 2 1 3 1 1 3 4 4 4 4 4 3 3 3 4 4 3 4 5 5 5 5 5 5 5 6 6 7 8 7 8 8 9 10 10 10 9 7 9 10 9 10 9 10 9 9 10 8 8 7 6 7 6 5 6 7 7 7 7 7 7 7 7 7 6 6 6 5 5 5 6 6 7 7 7 8
2 3 5 6 2 2 1 1 2 4 5 1 1 1 2 10 5 9 10 6 0 1 2 0 2 3 3 3 3 3 3 3 4 4 5 5 6 6 5 5 5 6 7 6 6 5 5 6 7 9 8 7 9 8 10 9 9 10 9 9 9 9 10 10 9 8 7 8 8 8 8 8 6 7 8 8 7 9 8 7 8 8 7 7 7 7 6 6 6 6 6 6 6 6 6 8 8
4 5 5 5 2 2 2 2 2 2 1 2 1 1 2 2 3 11 14 15 12 3 4 4 4 5 5 5 4 4 3 4 4 5 5 5 6 6 6 6 6 6 6 7 6 6 6 6 7 9 9 7 8 9 10 10 10 10 9 8 8 9 9 10 9 8 7 7 7 8 8 8 8 8 8 9 8 10 9 9 9 9 8 8 8 8 7 7 6 7 7 7 7 7 6 6 7
7 3 5 5 3 2 3 3 4 5 3 0 3 1 6 3 4 3 9 11 3 2 2 1 2 2 3 3 3 2 4 5 5 5 5 5 6 6 7 7 7 6 7 7 7 7 7 7 8 9 8 8 9 10 9 10 9 8 8 7 7 8 9 8 8 8 7 7 7 7 7 7 8 8 9 8 6 9 8 7 7 7 7 7 7 7 7 7 7 7 6 7 5 5 5 6 7
2 3 4 1 5 1 2 0 0 0 0 1 1 4 2 4 3 6 5 3 3 3 4 3 4 3 3 3 4 5 5 5 5 5 5 5 5 5 5 6 6 6 7 7 7 7 7 8 8 9 10 9 9 9 9 9 8 7 7 8 8 7 7 7 7 7 7 7 6 7 7 7 6 5 4 4 4 5 5 5 5 5 5 5 6 7 8 7 7 7 7 6 6 4 4 6 7
4 4 4 4 1 6 3 1 0 1 2 6 4 3 7 4 7 10 8 5 6 3 4 4 5 5 5 5 5 5 5 5 5 5 5 5 4 5 5 5 5 6 7 8 8 8 8 8 8 8 7 7 8 8 8 8 8 8 9 8 7 7 8 8 8 7 7 6 6 6 6 6 5 4 4 4 5 5 6 6 6 6 6 6 6 7 8 8 8 8 7 6 6 4 5 7 6
7 1 6 2 1 3 2 3 1 1 5 4 5 6 3 1 6 4 7 6 8 5 5 5 4 4 5 5 5 5 5 5 5 5 5 6 5 5 5 5 5 6 6 6 7 6 6 6 7 8 7 9 7 7 8 8 8 8 7 8 7 7 6 6 7 6 5 5 4 4 4 5 5 4 4 4 5 6 6 6 6 6 6 6 7 6 5 6 7 7 7 6 5 5 6 6 7
2 6 2 7 2 3 1 0 4 2 4 3 2 4 3 7 6 3 1 5 7 5 4 4 3 5 6 6 5 5 5 5 5 5 4 5 5 6 5 6 5 5 6 6 6 6 5 5 6 6 7 8 7 6 5 6 6 5 6 7 7 7 6 5 4 4 4 4 4 4 4 4 4 4 5 4 5 5 5 5 5 5 4 5 5 5 5 6 6 6 6 6 5 5 6 7 6
0 0 2 1 3 4 4 4 1 1 4 4 4 4 4 4 4 5 6 5 5 5 5 5 4 5 6 5 5 5 5 5 5 5 5 5 5 6 6 6 6 6 6 6 6 5 5 5 6 5 6 7 7 7 7 7 6 5 6 6 6 5 5 5 5 5 5 4 4 4 4 4 5 4 4 4 5 5 5 5 4 5 5 5 5 5 6 6 6 7 7 5 5 6 7 7 6
1 2 2 0 1 1 3 3 3 3 3 3 2 3 2 4 6 8 10 5 1 2 3 1 0 1 1 1 4 5 5 5 5 5 5 6 5 5 5 5 5 4 4 5 6 6 5 5 6 6 8 9 9 8 8 7 6 6 6 7 7 6 6 4 4 4 5 4 4 5 4 4 3 4 4 4 5 5 5 5 5 6 6 5 5 5 5 5 6 7 6 6 6 6 7 6 6
10 10 7 9 6 4 4 6 1 2 2 3 4 7 2 2 3 3 1 1 3 1 2 1 0 1 2 3 3 0 4 5 5 5 5 5 5 5 5 5 5 5 5 5 5 5 5 5 6 5 6 7 8 9 9 8 7 6 7 6 6 5 5 4 5 4 5 5 5 5 5 5 5 5 5 5 5 4 4 5 5 5 5 5 5 5 5 5 6 6 5 6 6 6 6 7 6
Wind_Direction
298 274 229 222 241 256 308 233 276 208 266 253 174 244 114 87 108 110 97 153 104 62 37 63 56 40 22 54 101 81 32 59 10 259 105 144 177 162 114 114 124 116 116 120 123 118 111 111 110 106 103 98 96 96 90 79 71 73 73 89 87 86 92 91 82 84 83 82 77 74 70 67 68 67 66 64 73 77 77 79 80 76 71 72 75 77 78 78 79 77 76 77 78 79 79 77 76
296 312 290 258 257 315 259 176 259 273 207 254 60 77 132 104 141 106 153 151 93 110 77 66 54 79 257 53 133 105 53 59 55 88 97 133 146 103 116 126 123 125 122 129 131 123 116 118 116 111 110 107 105 100 95 91 88 87 85 95 94 89 90 91 85 84 84 77 75 75 73 71 73 76 74 77 75 75 77 77 78 80 80 78 76 76 78 80 81 81 80 80 82 82 82 80 78
313 312 297 216 260 222 296 327 267 272 215 218 73 106 120 129 121 144 85 84 102 114 86 67 69 53 65 203 48 49 101 86 91 96 104 135 125 128 138 124 127 127 133 139 122 119 122 122 119 114 108 102 100 101 98 89 85 89 85 93 100 96 87 95 91 88 87 85 82 76 75 75 73 74 72 69 70 71 72 75 76 78 81 78 76 76 77 79 79 80 81 81 81 81 79 78 75
284 269 278 287 280 177 272 180 232 252 282 103 98 168 141 138 92 86 86 88 96 113 107 137 124 202 322 86 97 90 101 77 83 115 123 165 119 143 139 124 131 130 130 122 124 118 119 127 119 118 114 110 105 103 102 97 95 84 80 85 86 106 102 94 89 92 93 89 81 77 73 76 77 73 73 71 70 74 74 70 72 70 73 77 77 75 75 76 77 79 81 81 81 81 80 77 76
278 276 240 295 308 226 241 227 235 217 279 288 144 164 140 100 106 100 96 106 116 127 140 147 102 23 308 48 350 54 80 112 106 118 122 105 129 135 134 125 126 126 126 126 116 116 126 126 123 122 120 115 110 105 104 103 94 89 83 89 94 105 102 88 93 88 87 91 87 82 84 80 77 76 77 77 76 75 77 79 78 78 79 79 77 78 79 79 80 80 79 81 83 82 80 76 70
260 284 201 97 247 9 350 297 255 258 327 338 120 148 116 116 108 112 112 110 126 158 107 193 43 193 59 41 358 88 194 144 146 126 108 134 137 141 126 128 129 134 131 114 112 120 127 130 127 124 123 118 114 113 107 106 103 88 84 90 92 99 99 87 84 96 96 90 90 88 86 85 81 75 75 77 78 74 73 75 77 77 74 76 81 81 80 82 81 80 81 82 83 84 80 76 68
303 266 213 209 273 125 261 251 255 200 331 348 89 126 106 111 118 113 111 87 36 43 349 151 139 120 106 123 77 41 360 115 144 122 119 135 129 133 143 127 136 133 126 118 114 121 131 131 130 124 123 122 118 116 115 105 98 94 89 91 94 97 103 92 90 106 95 91 94 92 87 80 76 83 81 81 80 79 78 77 75 76 77 78 79 81 81 81 82 81 82 84 84 85 79 71 67
248 297 166 182 213 165 247 268 288 8 305 42 359 108 109 116 127 119 137 130 155 163 195 323 166 15 85 189 105 262 56 52 92 110 123 127 123 140 161 131 134 128 114 110 115 124 131 130 124 126 126 123 121 117 114 107 101 95 92 92 97 97 101 94 80 94 101 97 93 93 92 93 87 82 88 86 82 82 82 81 80 79 82 81 79 80 81 82 83 84 84 85 87 85 79 71 69
247 148 309 4 256 169 272 254 237 144 119 67 49 83 109 131 133 131 156 160 132 174 167 206 102 157 153 82 85 98 83 104 102 118 130 125 128 157 151 138 127 124 106 108 115 128 128 127 126 128 128 126 123 118 114 112 101 98 101 98 97 97 102 97 86 89 100 101 97 95 95 89 92 92 94 88 84 83 86 86 84 82 82 83 82 82 81 83 83 83 87 91 91 87 81 73 67
254 154 194 222 224 200 208 262 255 113 97 89 109 110 124 136 141 144 158 120 151 132 160 171 109 110 115 98 116 144 138 114 119 117 129 128 139 160 140 129 125 115 108 119 126 133 130 130 129 127 129 128 124 122 118 114 107 100 97 101 105 102 104 103 97 93 97 99 101 98 95 89 88 93 89 91 90 86 83 83 83 82 82 84 86 86 84 82 83 86 92 94 91 85 80 73 66
235 169 290 238 249 251 197 239 168 141 106 87 87 113 120 164 143 150 157 126 143 128 107 131 129 181 119 90 58 36 135 120 126 132 137 136 148 160 147 125 125 121 123 133 131 127 133 131 129 127 128 126 124 123 120 115 110 106 103 98 107 105 107 109 105 99 100 102 102 100 94 93 79 62 87 93 91 85 82 82 82 82 82 80 81 83 85 84 84 87 91 91 88 86 84 75 64
261 208 156 212 233 221 213 232 152 102 123 124 108 134 133 168 160 148 151 135 144 118 150 189 164 192 123 130 154 153 133 143 128 136 143 142 164 166 133 118 131 114 125 129 126 137 139 131 132 135 129 126 122 119 118 115 111 111 111 102 95 116 114 114 109 107 105 102 101 99 90 75 64 66 74 88 84 85 84 82 82 82 83 81 80 81 84 85 86 91 94 89 84 86 86 79 70
270 198 198 262 228 228 298 292 105 114 113 193 148 174 170 167 181 155 136 130 152 143 159 198 17 234 105 85 134 140 151 156 133 135 139 152 162 145 125 125 139 120 123 136 132 141 138 147 137 144 137 128 124 119 116 115 111 110 111 106 89 84 116 114 116 112 108 102 89 77 72 66 66 69 80 85 84 87 85 80 77 77 80 81 81 82 82 85 89 92 90 84 82 84 83 77 71
216 273 192 223 268 283 251 55 109 114 187 153 140 140 182 161 207 139 129 146 162 164 117 142 198 98 90 112 151 158 154 153 132 128 144 148 147 140 139 128 131 131 134 143 140 142 146 149 147 143 140 135 127 122 117 116 113 106 98 91 86 83 92 113 114 106 100 90 83 75 68 64 68 70 78 85 80 79 79 76 78 74 78 81 79 78 80 82 85 89 88 84 83 85 79 78 72
268 322 286 237 244 255 275 161 182 175 186 129 146 144 156 176 191 65 133 152 35 87 145 49 18 2 191 182 163 180 156 148 132 134 144 148 166 151 130 127 126 131 146 163 149 149 158 149 148 142 157 142 138 132 127 122 115 105 99 96 95 84 84 93 94 96 98 94 92 88 84 83 80 82 81 85 92 86 83 76 75 75 79 84 80 79 80 80 83 87 85 82 81 81 75 74 70
255 354 253 221 254 205 273 277 60 171 144 121 161 146 131 40 2 95 29 30 138 83 108 92 19 34 56 26 144 147 146 139 133 134 143 162 156 142 118 131 142 140 166 176 154 164 158 146 143 152 165 150 156 139 135 125 118 111 106 105 102 100 99 99 102 100 101 101 102 105 103 94 92 89 86 76 74 79 82 84 80 80 80 87 83 82 80 83 86 86 80 78 79 75 66 60 45
307 155 290 233 268 177 207 203 133 227 126 128 169 160 146 149 16 67 269 100 124 160 62 58 77 67 46 57 115 130 132 131 129 137 153 152 127 135 127 140 148 156 178 187 163 165 149 143 150 157 172 154 157 140 137 131 121 112 105 105 109 110 109 108 108 106 103 110 116 131 134 125 117 119 98 83 77 82 85 81 77 73 69 73 86 86 82 85 86 82 81 83 85 82 67 51 38
353 228 207 234 249 200 181 204 147 129 127 151 166 177 133 145 157 110 158 100 97 145 108 85 64 57 71 65 113 121 129 138 142 148 155 148 148 146 153 168 160 168 174 184 184 169 161 153 158 168 160 151 156 141 137 132 142 131 123 123 117 120 121 125 127 133 131 141 152 163 186 142 151 136 114 109 90 87 86 87 84 83 78 70 66 66 73 78 78 76 79 85 99 109 104 74 31
185 243 190 237 220 222 354 29 77 146 150 162 163 188 149 162 147 160 141 161 127 159 132 133 95 83 74 107 116 126 138 147 149 156 162 158 162 162 169 174 175 164 176 175 189 180 177 156 163 172 148 153 146 137 129 139 156 144 146 139 133 138 152 157 155 155 158 158 191 198 209 145 93 82 94 96 97 89 97 98 94 92 86 85 86 83 78 71 66 63 53 61 95 116 50 133 99
237 303 247 243 40 83 22 43 67 39 132 152 153 193 187 142 155 143 178 165 153 179 162 157 142 144 153 138 132 137 145 154 159 161 171 169 170 168 172 174 181 176 172 180 179 185 178 162 174 167 152 157 147 143 136 149 174 149 158 144 146 151 173 191 157 187 155 175 200 214 132 91 92 99 109 110 104 99 91 96 101 100 102 101 101 89 87 86 84 80 45 345 302 285 280 173 142
202 180 228 272 344 268 24 50 28 32 104 144 162 166 167 155 137 156 186 155 194 201 188 176 170 157 156 161 145 152 154 159 173 174 174 179 178 170 178 176 181 175 171 176 173 188 177 169 182 167 149 154 149 146 150 162 183 156 160 152 160 159 181 200 167 191 153 185 210 104 106 106 117 127 135 136 127 125 122 126 128 127 134 140 138 130 125 144 158 112 163 259 261 238 258 202 158
14 224 200 334 358 69 22 52 36 14 342 130 154 157 172 140 114 177 193 188 185 196 194 174 171 152 153 163 154 155 161 166 177 179 182 181 183 170 184 168 178 180 171 177 183 184 179 179 173 171 157 153 156 154 162 170 173 155 152 156 166 157 185 180 167 161 132 154 191 124 109 132 130 148 158 174 149 147 152 168 170 163 160 168 200 166 145 158 144 158 179 206 245 235 221 190 175
247 241 243 59 36 72 349 62 353 345 26 134 145 174 100 123 151 205 196 218 110 40 11 154 169 150 158 156 152 163 169 176 182 182 185 183 187 178 185 170 177 186 173 183 179 186 177 184 172 170 167 160 168 159 166 159 160 149 148 154 166 157 164 180 160 157 150 175 175 133 118 177 149 157 172 200 172 157 171 181 181 169 165 164 197 179 146 163 156 165 189 220 234 236 255 170 143
220 256 117 37 44 82 4 54 344 351 45 107 114 94 126 152 177 202 223 93 115 62 14 55 104 136 141 151 166 170 175 181 185 185 187 187 187 185 181 179 175 175 162 179 180 184 175 183 170 168 176 167 177 169 150 158 156 148 154 149 163 150 153 183 163 170 156 174 160 147 162 174 166 155 178 185 191 155 182 175 162 144 153 175 198 143 132 139 173 169 191 226 215 79 44 19 43
218 244 146 123 91 125 79 135 52 16 46 336 151 146 159 180 241 157 221 139 135 103 77 70 112 130 145 153 166 172 175 180 183 187 188 191 188 191 184 176 179 167 165 177 179 180 171 176 168 175 180 178 173 174 162 158 151 143 145 151 169 135 161 175 177 165 147 149 175 155 187 163 172 154 160 173 185 171 171 146 136 143 155 173 118 107 124 144 236 203 201 161 92 95 31 330 297
219 241 114 157 104 112 156 95 126 133 57 331 86 173 76 65 81 231 210 164 130 117 95 105 122 138 147 160 167 168 175 182 184 187 191 187 185 189 192 182 179 176 171 171 176 187 168 170 176 181 181 183 175 176 172 157 152 152 151 160 167 150 167 179 165 145 153 155 175 171 186 171 169 154 163 168 168 192 152 150 140 152 165 147 131 147 148 154 204 213 159 157 170 207 187 203 203
286 144 127 113 121 121 220 135 122 160 137 187 168 199 112 81 119 244 198 158 136 111 117 138 139 159 155 162 172 172 174 182 185 183 184 192 193 191 192 185 186 180 167 176 180 189 171 170 184 182 186 178 175 178 171 161 159 155 156 166 148 169 175 175 166 164 191 190 162 172 183 224 181 162 154 174 167 166 147 145 175 174 167 168 158 175 160 169 189 184 172 187 205 199 188 189 171
351 103 91 98 150 106 153 111 128 165 120 193 248 146 83 141 168 240 135 141 148 140 138 153 162 179 169 168 173 173 180 184 182 179 189 189 192 189 190 187 193 185 172 180 177 181 172 174 181 186 180 177 180 178 172 167 169 151 159 167 169 169 185 193 170 175 193 195 177 173 186 207 216 171 155 167 165 159 156 165 193 182 181 187 165 175 158 173 181 180 170 175 183 164 193 113 170
234 164 161 140 150 138 173 160 173 209 129 191 264 128 229 153 223 209 157 163 151 150 156 165 176 168 179 173 169 173 181 178 180 191 194 191 184 186 192 186 189 196 183 174 170 174 182 177 179 184 182 179 186 185 175 173 168 152 165 174 179 170 186 197 179 182 190 201 185 170 184 189 215 192 163 165 169 165 167 174 189 195 186 180 169 169 153 163 164 134 126 83 52 138 123 146 141
343 262 228 141 171 232 193 136 149 172 108 193 72 244 240 213 218 190 154 146 155 166 171 175 185 175 168 177 168 172 181 174 184 193 190 186 187 188 190 181 184 191 187 179 168 176 177 179 177 180 188 181 184 193 175 182 180 162 164 175 177 173 185 198 188 179 182 193 189 167 178 190 195 203 175 161 167 171 178 180 184 195 182 173 167 151 149 155 170 144 144 121 196 161 156 153 144
191 217 266 208 131 223 168 159 154 163 281 188 37 195 278 241 214 157 158 154 161 185 187 174 182 188 171 171 170 178 191 188 186 186 190 187 186 182 186 179 178 182 181 181 180 174 170 171 174 185 182 181 177 189 191 186 185 174 165 174 180 177 189 199 197 180 176 188 181 173 178 194 192 194 182 157 165 175 185 187 185 190 176 166 151 151 148 172 171 169 147 160 194 199 207 170 159
242 178 231 253 183 53 163 167 173 160 258 210 145 303 242 353 124 140 152 157 162 181 198 177 183 185 181 170 174 178 186 189 192 188 191 191 183 180 181 188 177 178 181 181 180 171 172 171 172 178 175 176 176 185 196 189 186 185 173 175 180 178 187 195 196 183 174 183 179 173 181 192 188 188 186 161 169 184 186 186 187 178 173 156 154 151 156 176 190 172 174 163 180 194 198 215 173
240 203 143 203 210 147 174 246 216 6 136 202 208 223 271 102 94 118 135 167 185 195 185 189 185 184 183 181 183 181 177 187 191 191 192 190 189 179 180 187 183 180 176 177 177 175 175 169 167 174 182 192 175 185 190 193 197 190 192 186 179 172 181 189 188 179 179 183 187 172 177 186 190 188 185 176 168 185 188 178 182 176 168 156 156 157 173 190 179 176 181 182 174 185 192 197 189
229 192 228 180 205 147 205 49 211 126 153 186 234 238 244 162 160 164 172 186 184 218 215 191 187 182 182 182 184 188 191 182 190 193 191 186 189 182 177 184 182 175 178 179 180 181 181 170 171 177 179 191 184 178 183 187 197 193 199 194 156 167 176 184 184 184 189 187 191 183 173 185 193 189 186 181 178 180 183 177 178 172 165 157 157 158 179 199 177 164 177 189 186 169 194 180 168
184 186 224 238 203 182 168 164 194 148 238 191 196 233 262 225 174 171 190 187 182 209 217 215 190 178 185 183 187 192 195 195 194 190 189 184 183 184 177 178 179 176 179 181 177 180 179 168 169 179 175 180 180 171 180 186 197 203 205 190 162 168 177 181 181 192 197 189 197 199 193 187 187 186 189 182 182 182 182 182 177 170 159 156 157 163 176 180 149 152 162 150 81 68 88 87 137
197 185 191 237 184 194 203 170 144 165 181 221 182 206 228 245 201 191 188 194 187 206 216 227 218 192 188 187 189 189 196 202 193 185 187 184 180 180 179 173 180 178 176 182 176 173 180 170 166 173 183 180 179 168 167 177 179 193 202 214 196 179 175 176 182 186 186 195 200 198 187 177 178 178 189 189 183 185 176 177 152 149 156 159 162 167 179 177 177 169 184 163 153 101 75 103 111
322 194 184 217 174 211 67 97 30 25 112 224 224 222 231 243 236 202 189 181 203 202 205 214 216 210 203 191 187 195 195 201 191 181 182 182 179 181 180 169 177 179 178 178 176 176 180 181 165 179 184 181 186 188 183 175 180 188 203 208 204 183 172 171 184 192 191 194 197 193 176 174 173 178 188 188 188 183 180 158 147 158 161 168 171 190 181 174 177 178 180 168 167 177 202 134 112
339 332 154 221 211 199 14 106 232 306 116 238 221 256 252 245 240 227 164 163 203 198 202 204 207 207 210 205 200 195 203 195 178 181 182 176 177 178 175 173 172 178 191 184 185 181 180 182 182 179 178 185 188 190 188 189 191 193 191 200 186 185 175 173 184 190 197 198 201 204 195 187 185 184 188 187 188 185 186 171 168 174 169 180 186 169 164 164 164 175 161 189 205 186 212 169 168
308 12 286 205 223 110 186 71 29 227 86 273 347 227 239 237 236 236 164 194 205 201 193 197 197 206 209 205 206 201 191 198 185 192 176 175 176 178 177 180 183 184 184 187 189 181 183 188 190 181 180 184 188 184 185 194 192 190 188 192 183 193 207 184 174 175 182 190 199 203 201 203 201 201 190 191 194 196 196 186 184 173 178 169 169 182 178 184 185 187 183 189 203 221 203 169 180
324 305 28 248 75 123 278 334 113 283 204 297 14 312 280 288 280 261 227 192 208 201 199 204 195 202 206 203 191 193 200 193 189 186 183 176 174 178 180 185 184 179 184 190 188 189 188 190 189 184 182 185 188 189 188 188 186 187 185 172 177 177 199 189 165 174 176 182 198 201 206 201 202 203 189 184 192 197 198 196 181 175 181 178 184 187 190 199 189 190 191 202 179 195 207 222 197
224 247 301 304 91 56 107 186 169 50 349 112 324 315 287 237 245 245 235 230 220 202 200 206 209 210 207 203 196 191 193 190 190 191 184 180 181 187 187 185 179 187 189 189 188 189 191 192 191 186 184 186 188 189 186 171 159 152 145 129 158 184 172 205 189 180 179 182 187 195 202 195 195 195 193 187 190 199 199 195 185 181 180 185 184 195 199 202 197 193 189 189 194 206 216 211 204
249 215 202 240 343 110 83 120 128 97 284 219 144 341 282 217 216 225 221 216 222 213 204 210 209 214 204 206 212 206 196 187 185 190 189 187 189 190 188 186 189 193 194 193 190 191 188 190 189 186 185 184 186 188 184 171 170 167 160 151 162 175 191 195 207 205 181 184 192 174 180 190 197 198 199 202 196 196 202 199 193 186 187 187 194 201 204 196 196 192 194 198 207 210 217 213 212
177 255 195 183 113 114 127 157 97 252 229 302 79 179 275 313 256 233 221 202 212 208 205 214 210 206 198 209 210 199 197 196 196 190 183 183 191 186 191 191 194 195 199 186 187 190 190 187 188 186 186 184 181 179 179 172 172 180 184 184 181 182 188 210 210 202 200 184 163 166 179 186 196 201 207 208 206 201 202 201 199 197 193 191 191 198 204 203 198 200 193 200 209 205 206 234 224
235 230 341 199 123 134 160 152 162 219 105 352 60 164 248 291 278 317 304 175 206 204 216 225 220 210 209 214 212 207 204 200 192 194 185 187 183 183 189 194 193 199 188 183 185 183 187 188 184 185 182 179 181 174 178 180 177 179 182 187 188 191 194 195 190 198 181 166 167 168 173 186 193 194 199 205 202 199 200 200 197 196 196 196 187 201 207 204 200 199 199 208 212 209 206 218 229
198 277 14 59 157 158 148 144 169 212 77 298 219 262 323 254 271 209 23 301 241 225 208 222 229 225 221 217 213 212 210 205 195 196 197 185 182 186 182 186 193 180 177 183 188 185 182 180 179 178 180 174 177 175 176 182 179 178 178 175 187 203 189 195 194 187 183 177 174 180 187 189 189 196 194 193 201 196 197 203 198 199 200 201 192 202 206 202 206 203 201 205 209 212 209 216 222
241 183 55 65 42 66 129 157 157 345 100 246 221 192 214 281 247 246 248 215 228 226 218 216 212 210 212 212 208 207 208 207 200 199 199 199 189 174 169 158 165 181 176 172 174 171 174 171 176 176 182 172 172 172 173 179 179 173 177 179 185 192 189 196 186 197 193 187 196 194 189 200 191 189 194 194 193 199 197 199 203 200 198 197 192 202 199 206 211 212 208 207 209 216 210 210 221
127 148 83 42 62 63 13 50 108 21 239 242 212 195 180 295 249 198 174 219 202 231 250 250 228 202 206 199 186 180 174 168 161 147 152 145 139 138 130 144 150 136 154 160 169 172 174 175 174 179 181 168 166 170 170 176 178 181 185 185 186 188 192 192 201 204 190 190 197 201 196 201 200 182 187 193 187 184 192 191 200 201 195 193 194 195 203 201 206 212 215 216 214 213 214 215 222
115 137 123 103 5 43 50 338 69 174 264 172 320 233 181 202 282 230 202 21 137 172 262 181 143 116 125 110 115 129 137 151 153 156 170 144 122 126 131 151 152 154 141 156 165 168 177 179 174 176 181 173 167 168 169 174 176 183 186 182 186 188 187 196 204 206 192 190 188 194 194 188 199 205 199 194 196 189 187 184 188 194 198 195 196 190 194 194 194 200 211 216 226 221 220 219 227
98 137 133 130 197 79 300 108 223 220 229 253 357 12 302 240 245 285 293 269 224 180 175 155 153 147 126 122 111 98 96 117 150 178 180 181 181 181 180 189 170 168 179 179 177 174 175 178 179 179 189 174 167 167 173 172 177 187 187 186 187 186 189 196 204 205 200 188 185 187 190 195 188 197 207 207 197 191 189 184 186 195 195 190 185 180 184 184 190 196 204 214 220 227 222 221 226
153 159 151 132 171 152 203 210 195 255 304 277 236 242 259 261 263 230 252 272 265 214 174 143 143 156 166 156 147 145 171 183 191 190 194 189 187 189 187 187 185 174 177 181 179 177 179 181 183 182 189 176 163 168 176 177 185 187 188 190 187 184 195 194 199 201 205 198 185 190 188 188 193 201 203 207 191 188 191 191 189 194 193 189 187 185 181 182 184 191 197 207 216 219 216 222 232
190 174 155 170 168 160 188 176 194 210 206 244 279 94 233 127 251 235 235 247 286 97 66 84 101 117 133 134 144 174 198 214 195 188 191 191 190 177 181 181 177 175 177 179 177 178 173 183 183 184 184 184 169 173 177 183 183 184 187 194 190 187 196 196 194 195 201 196 193 190 195 192 194 202 200 200 175 175 185 187 188 184 182 184 184 186 185 185 187 190 195 198 197 189 208 221 228
184 164 86 89 224 308 180 188 93 103 24 328 331 200 224 200 264 288 240 239 216 195 180 163 208 193 161 180 199 209 212 209 194 193 195 196 182 166 165 166 172 174 179 175 174 176 178 186 186 189 187 183 172 169 178 180 182 182 187 197 200 190 190 194 200 197 198 193 196 186 191 195 197 192 192 173 189 168 168 174 178 190 188 185 179 182 186 189 189 193 198 192 199 172 201 223 234
221 113 185 192 148 95 107 4 213 75 16 268 170 308 298 273 298 272 271 226 251 214 219 204 236 223 183 202 205 203 212 188 178 189 193 185 155 158 164 163 166 170 174 177 177 180 180 179 181 184 180 174 170 169 171 175 179 183 193 195 196 197 191 194 196 200 198 191 187 190 184 191 183 176 177 165 165 167 173 181 192 194 194 194 193 186 184 189 190 193 193 184 185 181 204 229 231
97 127 211 113 126 103 134 230 41 219 223 260 140 206 277 202 288 259 231 221 247 224 221 222 227 207 205 229 221 208 197 193 182 188 184 172 166 169 170 169 168 172 170 169 176 177 177 178 177 177 172 171 169 166 170 176 181 186 189 193 199 200 196 192 185 187 182 173 175 163 160 164 178 176 155 165 160 175 182 186 188 196 199 200 202 200 192 183 175 182 180 180 178 180 220 233 229
117 177 190 145 225 266 260 201 241 262 239 263 242 209 237 176 233 352 244 213 252 244 211 179 211 217 223 232 233 230 194 154 155 164 147 151 166 172 172 173 169 165 166 169 167 165 166 168 174 176 170 168 165 167 170 179 183 184 185 190 193 196 194 183 172 162 157 167 183 179 176 180 172 173 167 169 177 182 188 197 195 205 203 205 203 201 191 191 185 189 181 184 188 189 222 238 232
194 100 36 11 104 189 166 185 257 89 268 275 288 180 251 206 217 225 264 239 227 224 172 207 223 217 226 228 225 207 181 179 181 181 182 181 176 168 168 166 164 166 164 164 158 156 164 165 166 168 150 154 156 168 173 183 191 181 179 179 193 185 180 174 174 169 178 185 188 185 187 189 197 182 189 180 184 191 194 195 202 202 212 209 205 201 187 188 184 193 189 193 191 190 210 227 236
234 71 110 127 81 234 116 323 189 183 221 226 285 304 287 254 215 210 226 224 104 122 159 157 236 338 269 226 205 189 184 188 194 185 176 172 167 154 153 156 155 145 140 141 146 161 164 158 171 172 158 162 164 173 175 185 185 186 177 182 183 175 175 169 168 171 178 187 191 187 191 195 183 205 185 192 189 192 194 196 199 204 203 210 206 207 200 186 186 192 196 193 190 193 211 226 223
177 161 182 167 122 111 161 261 188 155 199 240 260 248 274 281 19 345 66 32 157 120 127 149 314 318 332 343 355 198 198 204 195 186 162 156 143 142 135 123 130 136 145 152 153 156 166 167 177 168 160 169 168 175 179 180 183 178 180 180 177 169 168 168 175 184 184 189 190 185 183 172 183 206 168 181 185 195 199 198 200 206 201 203 204 202 207 195 194 195 203 197 194 195 212 226 221